Location: Le Petit-Vavre
(46.5081°N, 1.5239°E)
Time: 06:27:06
(UTC+00:00)

Lacrosse 4 Rocket - Pass Details

Date: 03 March 2021
Orbit: 537 x 620 km, 68.0° (Epoch: 18 April)

Event Time Altitude Azimuth Distance (km) Brightness Sun altitude
Rises 20:47:53 0° 231° (SW) 2,829 5.2 -31.8°
Reaches altitude 10° 20:50:13 10° 238° (WSW) 1,944 4.4 -32.1°
Enters shadow 20:50:51 14° 242° (WSW) 1,717 4.1 -32.2°
